TimeMST,TemperatureF,Dew PointF,Humidity,Sea Level PressureIn,VisibilityMPH,Wind Direction,Wind SpeedMPH,Gust SpeedMPH,PrecipitationIn,Events,Conditions,WindDirDegrees,DateUTC
1:50 AM,67,57,63,29.97,2,South,2.2,,,,,180,2014-02-15 08:50:00
4:50 AM,64,48,46,29.95,2,SE,2.2,,,,Mostly Cloudy,140,2014-02-15 11:50:00
5:40 AM,60.8,42.8,52,29.97,10.0,SSE,8.1,-,N/A,,Mostly Cloudy,160,2014-02-15 12:40:00
7:40 AM,60.8,48.2,63,30.01,10.0,South,9.2,-,N/A,,Scattered Clouds,180,2014-02-15 14:40:00
7:50 AM,70,49,35,29.99,12,South,4.5,,,,Scattered Clouds,180,2014-02-15 14:50:00
8:40 AM,66.2,46.4,49,30.02,10.0,South,5.8,-,N/A,,Mostly Cloudy,180,2014-02-15 15:40:00
9:40 AM,75.2,46.4,36,30.04,10.0,SSW,8.1,-,N/A,,Mostly Cloudy,200,2014-02-15 16:40:00
10:40 AM,82.4,42.8,25,30.04,10.0,SSE,4.6,-,N/A,,Scattered Clouds,160,2014-02-15 17:40:00
10:50 AM,87,51,19,30.02,19,South,4.5,,,,Clear,180,2014-02-15 17:50:00
11:40 AM,87.8,32.0,14,30.01,10.0,Calm,Calm,-,N/A,,Scattered Clouds,0,2014-02-15 18:40:00
12:40 PM,87.8,21.2,9,29.98,10.0,NNW,5.8,-,N/A,,Scattered Clouds,330,2014-02-15 19:40:00
1:40 PM,87.8,32.0,14,29.96,10.0,NNW,11.5,-,N/A,,Scattered Clouds,340,2014-02-15 20:40:00
1:50 PM,91,47,13,29.96,19,NNW,8.9,,,,Clear,330,2014-02-15 20:50:00
2:45 PM,86.0,26.6,12,29.94,10.0,NNW,13.8,-,N/A,,Mostly Cloudy,340,2014-02-15 21:45:00
3:59 PM,86.0,30.2,13,29.95,10.0,North,11.5,-,N/A,,Mostly Cloudy,350,2014-02-15 22:59:00
4:45 PM,91,48,14,29.93,19,NNW,6.7,,,,Clear,330,2014-02-15 23:45:00
4:45 PM,84.2,42.8,23,29.94,10.0,NW,11.5,-,N/A,,Mostly Cloudy,320,2014-02-15 23:45:00
5:52 PM,78.8,48.2,34,29.96,10.0,NNW,9.2,-,N/A,,Mostly Cloudy,340,2014-02-16 00:52:00
6:40 PM,73.4,50.0,44,29.98,10.0,NW,9.2,-,N/A,,Scattered Clouds,310,2014-02-16 01:40:00
7:45 PM,76,64,57,29.96,2,West,2.2,,,,Clear,270,2014-02-16 02:45:00
7:57 PM,68.0,48.2,49,30.01,10.0,South,6.9,-,N/A,,Scattered Clouds,180,2014-02-16 02:57:00
8:53 PM,66.2,44.6,46,30.02,10.0,South,6.9,-,N/A,,Partly Cloudy,180,2014-02-16 03:53:00
9:44 PM,68.0,48.2,49,30.02,10.0,South,9.2,-,N/A,,Partly Cloudy,180,2014-02-16 04:44:00
10:41 PM,68.0,55.4,64,30.01,10.0,SSE,9.2,-,N/A,,Partly Cloudy,150,2014-02-16 05:41:00